Location: Newark
(40.4667°N, 5.6000°W)
Time: 21:59:11
(UTC+00:00)

A-11 Canister half - Pass Details

Date: 01 December 2019
Orbit: 1526 x 1683 km, 47.3° (Epoch: 07 December)

Event Time Altitude Azimuth Distance (km) Brightness Sun altitude
Rises 06:08:47 0° 181° (S) 4,905 11.9 -14.4°
Reaches altitude 10° 06:13:11 10° 165° (SSE) 3,931 11.6 -13.6°
Maximum altitude 06:19:37 19° 124° (SE) 3,260 11.8 -12.4°
Drops below altitude 10° 06:26:02 10° 84° (E) 3,935 12.3 -11.3°
Sets 06:30:23 0° 68° (ENE) 4,913 12.5 -10.5°
